Location: Newark
(33.6439°N, 114.9881°W)
Time: 13:12:18
(UTC+00:00)

A-11 Canister half - Pass Details

Date: 25 August 2019
Orbit: 1527 x 1682 km, 47.3° (Epoch: 16 September)

Event Time Altitude Azimuth Distance (km) Brightness Sun altitude
Rises 23:40:49 0° 304° (NW) 4,923 12.3 31.0°
Reaches altitude 10° 23:44:05 10° 309° (NW) 3,942 11.9 30.3°
Maximum altitude 23:54:04 57° 26° (NNE) 1,930 9.7 28.2°
Drops below altitude 10° 00:03:55 10° 104° (ESE) 3,907 10.7 26.2°
Sets 00:07:09 0° 108° (ESE) 4,877 11.1 25.5°
